Regional Weather Roundup
Issued by NWS

Home | Current Version | Previous Version | Text Only | Print | Product List | Glossary Off
Versions: 1 2 3 4 5 6 7 8 9 10 11 12 13 14 15 16 17 18 19 20 21 22 23 24 25 26 27 28 29 30 31 32 33 34 35 36 37 38 39 40 41 42 43 44 45 46 47 48 49 50

317
ASUS43 KDMX 241306
RWRIA

WEATHER ROUNDUP FOR IOWA
NATIONAL WEATHER SERVICE DES MOINES IA
800 AM CDT FRI MAR 24 2017

NOTE: "FAIR" INDICATES FEW OR NO CLOUDS BELOW 12,000 FEET WITH NO
SIGNIFICANT WEATHER AND/OR OBSTRUCTIONS TO VISIBILITY.

* - THESE STATIONS ARE NOT NWS STATIONS...THUS NOT UNDER NWS
QUALITY CONTROL.  THEY ALSO DO NOT REPORT WEATHER SUCH
AS PRECIPITATION OR FOG.

IAZ001>003-012>014-020>022-031>034-043>046-241400-
   NORTHWEST IOWA

CITY           SKY/WX    TMP DP  RH WIND       PRES   REMARKS
CARROLL *      CLOUDY    46  45  93 N20       29.84R FOG
CHEROKEE *     CLOUDY    41  41 100 N7        29.87R
LE MARS *      CLOUDY    41  39  93 N13       29.89R
ORANGE CITY *  CLOUDY    39  37  93 NE9G18    29.88R FOG     WCI  33
SHELDON *      CLOUDY    37  37 100 N13       29.86R FOG     WCI  29
SIOUX CITY     LGT RAIN  44  42  93 N20       29.85R
SPENCER        CLOUDY    39  38  96 N12       29.86R FOG     WCI  32
STORM LAKE *   LGT RAIN  41  39  93 N17       29.84R
$$

IAZ055>058-069>071-079>083-090>094-241400-
   SOUTHWEST IOWA

CITY           SKY/WX    TMP DP  RH WIND       PRES   REMARKS
ATLANTIC *     LGT RAIN  55  52  88 NE7       29.76F
AUDUBON *      LGT RAIN  52  48  87 CALM      29.82R
CLARINDA *     MOCLDY    63  50  63 SE6       29.79F
COUNCIL BLFS * CLOUDY    54  54 100 NW6       29.79R
CRESTON *      PTCLDY    57  48  72 SW6       29.82R
HARLAN  *      LGT RAIN  54  54 100 CALM      29.77F
LAMONI         CLOUDY    59  47  64 S9        29.81R
RED OAK *      CLOUDY    63  52  67 W6        29.79R
SHENANDOAH *   CLOUDY    59  52  77 SW5       29.79R
$$

IAZ047>049-059>061-072>074-084-241400-
   CENTRAL IOWA

CITY           SKY/WX    TMP DP  RH WIND       PRES   REMARKS
AMES           PTCLDY    46  43  89 CALM      29.78R
ANKENY *       PTCLDY    46  41  81 S3        29.80R
BOONE *        CLOUDY    50  45  81 S3        29.77R
CHARITON *     CLOUDY    61  48  63 S15G22    29.81R
DES MOINES     CLOUDY    57  47  69 S8        29.80R
GRINNELL*      PTCLDY    51  46  82 S5        29.82R
MARSHALLTOWN   CLOUDY    49  44  83 S9        29.79R
NEWTON *       CLOUDY    52  46  82 CALM      29.80R
PELLA *        PTCLDY    61  48  63 S15       29.81R
PERRY *        MOCLDY    49  42  77 W3        29.79R
$$

IAZ004>006-015-016-023>025-035-036-241400-
   NORTH CENTRAL IOWA

CITY           SKY/WX    TMP DP  RH WIND       PRES   REMARKS
ALGONA *       CLOUDY    41  41 100 N16G24    29.81S FOG
CLARION *      CLOUDY    41  41 100 N6        29.82R FOG
ESTHERVILLE    FOG       37  37 100 N13       29.86R VSB 1   WCI  29
FORT DODGE *   CLOUDY    43  37  81 N7        29.83R
MASON CITY     CLOUDY    41  39  93 N8        29.85R FOG
FOREST CITY *  CLOUDY    41  41 100 NE10      29.81S FOG
WEBSTER CITY * CLOUDY    43  41  93 N16       29.80R
IOWA FALLS *     N/A     44  40  86 SE3       29.79R
$$

IAZ007>011-017>019-026>030-037>042-050>054-066-241400-
   NORTHEAST IOWA

CITY           SKY/WX    TMP DP  RH WIND       PRES   REMARKS
CEDAR RAPIDS   CLOUDY    54  49  83 S13       29.81R
CHARLES CITY * CLOUDY    41  41 100 N14       29.82R FOG
CLINTON *      SUNNY     52  47  83 S9        29.87R
DECORAH *      CLOUDY    41  37  87 NE5       29.81R
DUBUQUE        CLOUDY    50  45  83 S12       29.83R
MONTICELLO *   CLOUDY    54  48  82 SW7       29.82R
OELWEIN *      CLOUDY    45  45 100 SE9       29.80S
WATERLOO       CLOUDY    42  39  89 CALM      29.78F
$$

IAZ064-065-067-068-078-241400-
   EAST CENTRAL IOWA

CITY           SKY/WX    TMP DP  RH WIND       PRES   REMARKS
DAVENPORT      CLOUDY    56  47  71 S20       29.86S
IOWA CITY      CLOUDY    54  48  80 S8        29.85R
MUSCATINE *    CLOUDY    45  41  87 CALM      29.87R
QUAD CITIES    CLOUDY    57  46  66 S15G22    29.86R
$$

IAZ062-063-075>077-085>089-095>099-241400-
   SOUTHEAST IOWA

CITY           SKY/WX    TMP DP  RH WIND       PRES   REMARKS
BURLINGTON     CLOUDY    56  49  77 S14       29.88R
FAIRFIELD *    CLOUDY    59  48  67 S13       29.84R
FORT MADISON * CLOUDY    55  48  76 S7        29.89R
KEOKUK *       CLOUDY    61  50  67 S16G22    29.88R
OSKALOOSA *      N/A     53  49  85 S10       29.83R
CENTERVILLE *    N/A     61  48  63 S13       29.85R
OTTUMWA        CLOUDY    58  51  78 S12       29.82R
WASHINGTON *   CLOUDY    57  50  77 S15       29.85R
$$

ABBREVIATIONS USED IN REMARKS
   TC - TEMPERATURES IN CELSIUS
  WCI - WIND CHILL INDEX
   HX - HEAT INDEX
  VSB - VISIBILITY
$$





USA.gov is the U.S. government's official web portal to all federal, state and local government web resources and services.